Location: 5810 Zion Rd, Cleves, OH 45002, USA
(39.1922°N, 84.7113°W)
Time: 04:08:49
(UTC-05:00)

Courier 1B Rocket - Pass Details

Date: 13 December 2019
Orbit: 920 x 1202 km, 28.2° (Epoch: 20 January)

Event Time Altitude Azimuth Distance (km) Brightness Sun altitude
Rises 11:05:45 0° 256° (WSW) 3,654 7.9 24.4°
Reaches altitude 10° 11:10:24 10° 227° (SW) 2,652 7.7 24.7°
Maximum altitude 11:12:38 12° 206° (SSW) 2,491 7.9 24.9°
Drops below altitude 10° 11:14:50 10° 185° (S) 2,615 8.6 25.0°
Sets 11:19:20 0° 155° (SSE) 3,538 9.3 25.3°
